When you browse on this site, cookies collect data to enhance your experience and personalize the content and advertising you see.
Visit our Privacy Policy to learn more. By continuing to use the site, you agree to this use of cookies and data.
  • In United Kingdom
  • List of Countries
  • For 7 days
  • Water Temperature
  • Satellite Maps
  • Weather Map
  • Weather Widgets
  • user-avatar
    Login

    Hourly Weather Brisbane

    Today, 20 April, Saturday

    Time Temperature Precipitation Wind Pressure Humidity
    00:00 +21°C° 3.3 mm 4 mps 764 mmHg 91%
    01:00 +21°C° 3.3 mm 4 mps 764 mmHg 92%
    02:00 +21°C° 2.7 mm 4 mps 764 mmHg 92%
    03:00 +21°C° 2.7 mm 4 mps 764 mmHg 92%
    04:00 +21°C° 0 mm 3 mps 764 mmHg 93%
    05:00 +21°C° 1.9 mm 3 mps 764 mmHg 92%
    06:00 +21°C° 1.9 mm 3 mps 764 mmHg 92%
    07:00 +21°C° 1.9 mm 4 mps 764 mmHg 92%
    08:00 +22°C° 1.4 mm 4 mps 764 mmHg 88%
    09:00 +23°C° 1.4 mm 4 mps 765 mmHg 84%
    10:00 +25°C° 1.4 mm 5 mps 765 mmHg 80%
    11:00 +26°C° 2 mm 5 mps 764 mmHg 80%
    12:00 +26°C° 2 mm 5 mps 764 mmHg 79%
    13:00 +26°C° 2 mm 5 mps 764 mmHg 78%
    14:00 +26°C° 1.9 mm 5 mps 763 mmHg 80%
    15:00 +25°C° 1.9 mm 5 mps 763 mmHg 82%
    16:00 +25°C° 1.9 mm 4 mps 763 mmHg 83%
    17:00 +23°C° 0.6 mm 4 mps 763 mmHg 86%
    18:00 +22°C° 0.6 mm 4 mps 764 mmHg 88%
    19:00 +22°C° 0.6 mm 4 mps 764 mmHg 90%
    20:00 +22°C° 0.6 mm 4 mps 764 mmHg 91%
    21:00 +21°C° 0.6 mm 4 mps 764 mmHg 91%
    22:00 +21°C° 0.6 mm 4 mps 765 mmHg 91%
    23:00 +21°C° 0.5 mm 3 mps 764 mmHg 91%

    Tomorrow, 21 April, Sunday

    Time Temperature Precipitation Wind Pressure Humidity
    00:00 +21°C° 0.5 mm 3 mps 764 mmHg 91%
    01:00 +21°C° 0.5 mm 3 mps 764 mmHg 91%
    02:00 +21°C° 0.5 mm 3 mps 764 mmHg 92%
    03:00 +21°C° 0.5 mm 3 mps 764 mmHg 92%
    04:00 +21°C° 0.5 mm 3 mps 764 mmHg 92%
    05:00 +21°C° 0.5 mm 3 mps 764 mmHg 91%
    06:00 +21°C° 0.5 mm 3 mps 764 mmHg 91%
    07:00 +21°C° 0.5 mm 3 mps 765 mmHg 91%
    08:00 +22°C° 0.3 mm 3 mps 765 mmHg 85%
    09:00 +25°C° 0.3 mm 4 mps 765 mmHg 79%
    10:00 +26°C° 0.3 mm 4 mps 765 mmHg 73%
    11:00 +27°C° 0.1 mm 5 mps 764 mmHg 68%
    12:00 +27°C° 0.1 mm 5 mps 764 mmHg 63%
    13:00 +28°C° 0.1 mm 5 mps 763 mmHg 58%
    14:00 +27°C° 0 mm 5 mps 763 mmHg 60%
    15:00 +27°C° 0 mm 5 mps 763 mmHg 62%
    16:00 +26°C° 0 mm 5 mps 762 mmHg 64%
    17:00 +25°C° 0.1 mm 4 mps 763 mmHg 70%
    18:00 +24°C° 0.1 mm 3 mps 764 mmHg 77%
    19:00 +22°C° 0.1 mm 3 mps 764 mmHg 84%
    20:00 +22°C° 0.2 mm 3 mps 764 mmHg 85%
    21:00 +21°C° 0.2 mm 3 mps 765 mmHg 87%
    22:00 +21°C° 0.2 mm 3 mps 765 mmHg 89%
    23:00 +21°C° 0.1 mm 3 mps 764 mmHg 89%

    Day after tomorrow, 22 April, Monday

    Time Temperature Precipitation Wind Pressure Humidity
    00:00 +21°C° 0.1 mm 3 mps 764 mmHg 90%
    01:00 +21°C° 0.1 mm 3 mps 764 mmHg 90%
    02:00 +20°C° 0 mm 2 mps 763 mmHg 91%
    03:00 +20°C° 0 mm 2 mps 763 mmHg 91%
    04:00 +20°C° 0 mm 2 mps 763 mmHg 92%
    05:00 +20°C° 0.1 mm 2 mps 763 mmHg 91%
    06:00 +20°C° 0.1 mm 2 mps 763 mmHg 91%
    07:00 +21°C° 0.1 mm 2 mps 764 mmHg 91%
    08:00 +22°C° 0.3 mm 3 mps 764 mmHg 85%
    09:00 +25°C° 0.3 mm 3 mps 764 mmHg 79%
    10:00 +26°C° 0.3 mm 4 mps 764 mmHg 73%
    11:00 +27°C° 0.1 mm 4 mps 764 mmHg 69%
    12:00 +27°C° 0.1 mm 4 mps 763 mmHg 64%
    13:00 +28°C° 0.1 mm 4 mps 763 mmHg 60%
    14:00 +27°C° 0.1 mm 4 mps 763 mmHg 63%
    15:00 +27°C° 0.1 mm 4 mps 763 mmHg 67%
    16:00 +26°C° 0.1 mm 4 mps 763 mmHg 70%
    17:00 +25°C° 0.3 mm 4 mps 763 mmHg 76%
    18:00 +23°C° 0.3 mm 4 mps 764 mmHg 81%
    19:00 +22°C° 0.3 mm 3 mps 764 mmHg 87%
    20:00 +22°C° 0.2 mm 3 mps 765 mmHg 88%
    21:00 +22°C° 0.2 mm 3 mps 765 mmHg 89%
    22:00 +22°C° 0.2 mm 3 mps 765 mmHg 90%
    23:00 +22°C° 0.2 mm 3 mps 765 mmHg 90%

    23 April, Tuesday

    Time Temperature Precipitation Wind Pressure Humidity
    00:00 +21°C° 0.2 mm 3 mps 765 mmHg 90%
    01:00 +21°C° 0.2 mm 3 mps 764 mmHg 91%
    02:00 +21°C° 0.4 mm 3 mps 764 mmHg 91%
    03:00 +21°C° 0.4 mm 3 mps 764 mmHg 91%
    04:00 +21°C° 0.4 mm 3 mps 764 mmHg 92%
    05:00 +21°C° 0.5 mm 3 mps 764 mmHg 92%
    06:00 +21°C° 0.5 mm 3 mps 765 mmHg 91%
    07:00 +21°C° 0.5 mm 3 mps 765 mmHg 91%
    08:00 +22°C° 0.9 mm 3 mps 766 mmHg 89%
    09:00 +23°C° 0.9 mm 4 mps 766 mmHg 86%
    10:00 +23°C° 0.9 mm 4 mps 766 mmHg 84%
    11:00 +23°C° 1.3 mm 4 mps 765 mmHg 83%
    12:00 +23°C° 1.3 mm 4 mps 765 mmHg 83%
    13:00 +23°C° 1.3 mm 4 mps 764 mmHg 82%
    14:00 +25°C° 0.2 mm 4 mps 764 mmHg 80%
    15:00 +25°C° 0.2 mm 4 mps 764 mmHg 79%
    16:00 +25°C° 0.2 mm 3 mps 764 mmHg 77%
    17:00 +24°C° 0 mm 3 mps 764 mmHg 79%
    18:00 +24°C° 0 mm 3 mps 765 mmHg 81%
    19:00 +22°C° 0 mm 3 mps 765 mmHg 83%
    20:00 +22°C° 0.2 mm 3 mps 765 mmHg 85%
    21:00 +22°C° 0.2 mm 3 mps 766 mmHg 87%
    22:00 +21°C° 0.2 mm 3 mps 766 mmHg 90%
    23:00 +21°C° 0.5 mm 3 mps 765 mmHg 90%

    24 April, Wednesday

    Time Temperature Precipitation Wind Pressure Humidity
    00:00 +21°C° 0.5 mm 3 mps 765 mmHg 90%
    01:00 +21°C° 0.5 mm 3 mps 764 mmHg 90%
    02:00 +21°C° 0.6 mm 3 mps 764 mmHg 91%
    03:00 +21°C° 0.6 mm 3 mps 764 mmHg 91%
    04:00 +21°C° 0.6 mm 2 mps 764 mmHg 91%
    05:00 +21°C° 0.3 mm 2 mps 765 mmHg 91%
    06:00 +21°C° 0.3 mm 2 mps 765 mmHg 91%
    07:00 +21°C° 0.3 mm 2 mps 765 mmHg 90%
    08:00 +22°C° 0 mm 3 mps 765 mmHg 85%
    09:00 +24°C° 0 mm 3 mps 765 mmHg 80%
    10:00 +25°C° 0 mm 3 mps 765 mmHg 75%
    11:00 +25°C° 0 mm 3 mps 765 mmHg 72%
    12:00 +26°C° 0 mm 3 mps 764 mmHg 68%
    13:00 +26°C° 0 mm 3 mps 764 mmHg 65%
    14:00 +26°C° 0 mm 3 mps 764 mmHg 65%
    15:00 +26°C° 0 mm 3 mps 764 mmHg 66%
    16:00 +25°C° 0 mm 3 mps 763 mmHg 66%
    17:00 +24°C° 0 mm 3 mps 764 mmHg 71%
    18:00 +22°C° 0 mm 3 mps 764 mmHg 76%
    19:00 +21°C° 0 mm 3 mps 765 mmHg 81%
    20:00 +21°C° 0 mm 2 mps 765 mmHg 83%
    21:00 +20°C° 0 mm 2 mps 765 mmHg 85%
    22:00 +20°C° 0 mm 2 mps 765 mmHg 87%
    23:00 +20°C° 0 mm 2 mps 765 mmHg 88%

    25 April, Thursday

    Time Temperature Precipitation Wind Pressure Humidity
    00:00 +20°C° 0 mm 2 mps 764 mmHg 90%
    01:00 +19°C° 0 mm 2 mps 764 mmHg 91%
    02:00 +19°C° 0.1 mm 2 mps 764 mmHg 92%
    03:00 +19°C° 0.1 mm 2 mps 764 mmHg 92%
    04:00 +19°C° 0.1 mm 2 mps 764 mmHg 92%
    05:00 +20°C° 0.1 mm 2 mps 764 mmHg 92%
    06:00 +20°C° 0.1 mm 2 mps 764 mmHg 91%
    07:00 +20°C° 0.1 mm 2 mps 764 mmHg 91%
    08:00 +23°C° 0.1 mm 2 mps 764 mmHg 83%
    09:00 +25°C° 0.1 mm 2 mps 764 mmHg 76%
    10:00 +26°C° 0.1 mm 2 mps 764 mmHg 69%
    11:00 +27°C° 0.2 mm 2 mps 764 mmHg 68%
    12:00 +27°C° 0.2 mm 3 mps 763 mmHg 68%
    13:00 +27°C° 0.2 mm 3 mps 762 mmHg 67%
    14:00 +27°C° 0.1 mm 3 mps 762 mmHg 69%
    15:00 +26°C° 0.1 mm 3 mps 762 mmHg 70%
    16:00 +26°C° 0.1 mm 3 mps 762 mmHg 72%
    17:00 +25°C° 0 mm 2 mps 762 mmHg 75%
    18:00 +24°C° 0 mm 2 mps 763 mmHg 78%
    19:00 +23°C° 0 mm 1 mps 763 mmHg 81%
    20:00 +22°C° 0 mm 1 mps 764 mmHg 83%
    21:00 +20°C° 0 mm 0 mps 764 mmHg 84%
    22:00 +19°C° 0 mm 0 mps 764 mmHg 85%
    23:00 +19°C° 0 mm 0 mps 764 mmHg 87%
    Show more